Location: Sceptre
(50.8619°N, 109.2670°W)
Time: 12:13:59
(UTC+00:00)

MOZHAYETS 4 - Visible Passes

Search period start: 28 June 2022 00:00
Search period end: 08 July 2022 00:00
Orbit: 660 x 679 km, 98.2° (Epoch: 28 June)

Date Brightness Start Highest point End Pass type
(mag) Time Alt. Az. Time Alt. Az. Time Alt. Az.
28 Jun 10.5 07:38:17 10° ENE 07:40:01 12° NE 07:41:44 10° NNE visible
28 Jun 8.1 09:11:41 10° SSE 09:16:16 67° ENE 09:20:52 10° N visible
29 Jun 10.1 08:08:44 10° ESE 08:12:07 21° ENE 08:15:31 10° NNE visible
29 Jun 7.8 09:44:13 10° S 09:48:47 63° WSW 09:53:23 10° NNW visible
30 Jun 9.2 08:40:10 10° SE 08:44:22 36° ENE 08:48:34 10° N visible
30 Jun 8.6 10:17:19 10° SSW 10:21:28 32° W 10:25:38 10° NNW visible
01 Jul 10.5 07:38:46 10° ENE 07:40:30 12° NE 07:42:15 10° NNE visible
01 Jul 8.1 09:12:10 10° SSE 09:16:45 68° ENE 09:21:21 10° N visible
02 Jul 10.1 08:09:13 10° ESE 08:12:36 21° ENE 08:16:00 10° NNE visible
02 Jul 7.8 09:44:43 10° S 09:49:17 63° WSW 09:53:52 10° NNW visible
03 Jul 9.2 08:40:39 10° SE 08:44:51 36° ENE 08:49:04 10° N visible
03 Jul 8.6 10:17:49 10° SSW 10:21:58 32° W 10:26:06 10° NNW visible
04 Jul 10.5 07:39:14 10° ENE 07:40:59 12° NE 07:42:44 10° NNE visible
04 Jul 8.0 09:12:40 10° SSE 09:17:14 68° ENE 09:21:49 10° N visible
05 Jul 10.1 08:09:42 10° ESE 08:13:05 21° ENE 08:16:29 10° NNE visible
05 Jul 7.8 09:45:13 10° S 09:49:46 62° WSW 09:54:21 10° NNW visible
06 Jul 9.2 08:41:08 10° SE 08:45:20 36° ENE 08:49:32 10° N visible
06 Jul 8.6 10:18:20 10° SSW 10:22:27 32° W 10:26:35 10° NNW visible
07 Jul 10.5 07:39:42 10° ENE 07:41:28 12° NE 07:43:13 10° NNE visible
07 Jul 8.0 09:13:09 10° SSE 09:17:43 69° ENE 09:22:18 10° N visible
